Find Starlink 34871

NORAD ID: 65217 Int'l Des: 2025-176 Owner: SPXS Country: US Constellation: starlink operational
LEOCIRCULAR

Live Position

Loading 3D Globe...

About Starlink 34871

Description loading...

Upcoming Passes

Passes for default location (London). Set your location on the main map for personalized predictions.

Altitude History

Loading altitude history...

Two-Line Element Set

1 65217U 25176V 26105.91398989 .00011238 00000-0 39087-3 0 9997
2 65217 53.1623 339.5385 0001485 95.5367 264.5803 15.30209488 38821
Epoch: Apr 15, 2026 • Age: 11 hours

Current Status

Altitude 489.0 km
Velocity 7.62 km/s
Sub-Earth Point -39.41°S, 35.01°W
Launch Date Aug 14, 2025
Age 0.6 years
Type internet

Technical Details

Classification Payload
Mass 575.00 kg
Dry Mass 530.00 kg
Total Mass 575.00 kg
Length 0.30 m
Diameter 4.10 m
Span 29.00 m
Shape Box + pan
Manufacturer SPXS
Bus Type Starlink V2MO
Phase Status In Orbit
Owner/State SPXS/US

Most Searched